Location: Brunsbüttel
(52.3892°N, 10.6138°E)
Time: 06:02:48
(UTC+00:00)

Cosmos 1842 - Pass Details

Date: 19 May 2025
Orbit: 439 x 450 km, 82.5° (Epoch: 22 June)

Event Time Altitude Azimuth Distance (km) Brightness Sun altitude
Exits shadow 22:06:29 24° 112° (ESE) 972 4.2 -16.2°
Maximum altitude 22:07:11 26° 91° (E) 923 4.3 -16.2°
Drops below altitude 10° 22:10:09 10° 33° (NNE) 1,601 6.3 -16.3°
Sets 22:12:26 0° 20° (NNE) 2,481 7.6 -16.4°
